When you browse on this site, cookies collect data to enhance your experience and personalize the content and advertising you see.
Visit our Privacy Policy to learn more. By continuing to use the site, you agree to this use of cookies and data.
  • In Österreich
  • Länderverzeichnis
  • Für 7 Tage
  • Wassertemperatur
  • Satellitenkarten
  • Wetterkarte
  • News
  • Widgets
  • user-avatar
    Anmelden

    Stündliche Wetter Lubikowo

    Heute, 10 Dezember, Montag

    Zeit Temperatur Niederschläge Wind Luftdruck Luftfeuchtigkeit
    00:00 +4°C° 0.4 mm 8 m/S 743 mmHg 77%
    01:00 +4°C° 0 mm 7 m/S 743 mmHg 76%
    02:00 +4°C° 0.2 mm 7 m/S 744 mmHg 76%
    03:00 +3°C° 0.2 mm 7 m/S 745 mmHg 75%
    04:00 +3°C° 0.2 mm 7 m/S 745 mmHg 74%
    05:00 +3°C° 0 mm 7 m/S 746 mmHg 75%
    06:00 +2°C° 0 mm 7 m/S 747 mmHg 75%
    07:00 +2°C° 0 mm 6 m/S 748 mmHg 76%
    08:00 +2°C° 0 mm 7 m/S 748 mmHg 75%
    09:00 +2°C° 0 mm 7 m/S 748 mmHg 73%
    10:00 +3°C° 0 mm 7 m/S 749 mmHg 72%
    11:00 +3°C° 0.1 mm 7 m/S 749 mmHg 69%
    12:00 +3°C° 0.1 mm 7 m/S 749 mmHg 66%
    13:00 +2°C° 0.1 mm 8 m/S 749 mmHg 64%
    14:00 +3°C° 0 mm 7 m/S 749 mmHg 65%
    15:00 +3°C° 0 mm 6 m/S 750 mmHg 67%
    16:00 +2°C° 0 mm 5 m/S 750 mmHg 68%
    17:00 +2°C° 0 mm 5 m/S 750 mmHg 70%
    18:00 +2°C° 0 mm 5 m/S 750 mmHg 72%
    19:00 +1°C° 0 mm 5 m/S 750 mmHg 74%
    20:00 +1°C° 0 mm 5 m/S 750 mmHg 75%
    21:00 +1°C° 0 mm 5 m/S 750 mmHg 77%
    22:00 +1°C° 0 mm 5 m/S 750 mmHg 79%
    23:00 +1°C° 0 mm 5 m/S 750 mmHg 78%

    Morgen, 11 Dezember, Dienstag

    Zeit Temperatur Niederschläge Wind Luftdruck Luftfeuchtigkeit
    00:00 +1°C° 0 mm 5 m/S 750 mmHg 78%
    01:00 +1°C° 0 mm 5 m/S 750 mmHg 78%
    02:00 +1°C° 0.2 mm 5 m/S 750 mmHg 78%
    03:00 +1°C° 0.2 mm 5 m/S 749 mmHg 78%
    04:00 +1°C° 0.2 mm 5 m/S 749 mmHg 78%
    05:00 +1°C° 0.4 mm 5 m/S 749 mmHg 79%
    06:00 +1°C° 0.4 mm 5 m/S 749 mmHg 81%
    07:00 +1°C° 0.4 mm 5 m/S 749 mmHg 82%
    08:00 +1°C° 0.2 mm 5 m/S 750 mmHg 82%
    09:00 +1°C° 0.2 mm 5 m/S 750 mmHg 82%
    10:00 +2°C° 0.2 mm 5 m/S 750 mmHg 83%
    11:00 +2°C° 0.2 mm 5 m/S 751 mmHg 81%
    12:00 +2°C° 0.2 mm 5 m/S 751 mmHg 80%
    13:00 +2°C° 0.2 mm 5 m/S 751 mmHg 78%
    14:00 +2°C° 0.3 mm 5 m/S 752 mmHg 80%
    15:00 +2°C° 0.3 mm 5 m/S 752 mmHg 82%
    16:00 +1°C° 0.3 mm 4 m/S 753 mmHg 83%
    17:00 +1°C° 0.2 mm 4 m/S 753 mmHg 85%
    18:00 +1°C° 0.2 mm 4 m/S 754 mmHg 86%
    19:00 +1°C° 0.2 mm 4 m/S 754 mmHg 88%
    20:00 +1°C° 0 mm 3 m/S 755 mmHg 89%
    21:00 +1°C° 0 mm 3 m/S 755 mmHg 90%
    22:00 +1°C° 0 mm 3 m/S 756 mmHg 92%
    23:00 0°C° 0 mm 3 m/S 756 mmHg 92%

    übermorgen, 12 Dezember, Mittwoch

    Zeit Temperatur Niederschläge Wind Luftdruck Luftfeuchtigkeit
    00:00 0°C° 0 mm 3 m/S 757 mmHg 93%
    01:00 -1°C° 0 mm 2 m/S 757 mmHg 93%
    02:00 -1°C° 0 mm 2 m/S 757 mmHg 93%
    03:00 -1°C° 0 mm 2 m/S 757 mmHg 94%
    04:00 -1°C° 0 mm 2 m/S 758 mmHg 94%
    05:00 -1°C° 0 mm 2 m/S 758 mmHg 94%
    06:00 -1°C° 0 mm 2 m/S 758 mmHg 94%
    07:00 +1°C° 0 mm 1 m/S 759 mmHg 94%
    08:00 +1°C° 0 mm 1 m/S 759 mmHg 92%
    09:00 +1°C° 0 mm 1 m/S 759 mmHg 90%
    10:00 +2°C° 0 mm 1 m/S 759 mmHg 88%
    11:00 +2°C° 0 mm 1 m/S 760 mmHg 85%
    12:00 +3°C° 0 mm 1 m/S 760 mmHg 82%
    13:00 +4°C° 0 mm 1 m/S 760 mmHg 80%
    14:00 +3°C° 0 mm 1 m/S 760 mmHg 83%
    15:00 +2°C° 0 mm 1 m/S 760 mmHg 86%
    16:00 +2°C° 0 mm 1 m/S 760 mmHg 90%
    17:00 +2°C° 0.2 mm 1 m/S 760 mmHg 90%
    18:00 +1°C° 0.2 mm 1 m/S 760 mmHg 91%
    19:00 +1°C° 0.2 mm 1 m/S 760 mmHg 91%
    20:00 +1°C° 0.1 mm 1 m/S 760 mmHg 92%
    21:00 +1°C° 0.1 mm 1 m/S 760 mmHg 93%
    22:00 0°C° 0.1 mm 1 m/S 761 mmHg 93%
    23:00 0°C° 0 mm 1 m/S 761 mmHg 93%

    13 Dezember, Donnerstag

    Zeit Temperatur Niederschläge Wind Luftdruck Luftfeuchtigkeit
    00:00 0°C° 0 mm 1 m/S 761 mmHg 93%
    01:00 0°C° 0 mm 1 m/S 761 mmHg 93%
    02:00 0°C° 0 mm 1 m/S 761 mmHg 93%
    03:00 -1°C° 0 mm 1 m/S 761 mmHg 93%
    04:00 -1°C° 0 mm 1 m/S 761 mmHg 93%
    05:00 -1°C° 0 mm 1 m/S 761 mmHg 92%
    06:00 -1°C° 0 mm 1 m/S 761 mmHg 92%
    07:00 -1°C° 0 mm 1 m/S 760 mmHg 92%
    08:00 -2°C° 0 mm 2 m/S 761 mmHg 90%
    09:00 -2°C° 0 mm 2 m/S 761 mmHg 88%
    10:00 -1°C° 0 mm 2 m/S 761 mmHg 86%
    11:00 -1°C° 0 mm 2 m/S 761 mmHg 84%
    12:00 +1°C° 0 mm 2 m/S 760 mmHg 83%
    13:00 +1°C° 0 mm 2 m/S 760 mmHg 81%
    14:00 +1°C° 0 mm 2 m/S 760 mmHg 84%
    15:00 -1°C° 0 mm 2 m/S 760 mmHg 86%
    16:00 +1°C° 0 mm 1 m/S 760 mmHg 89%
    17:00 +1°C° 0 mm 1 m/S 760 mmHg 89%
    18:00 +1°C° 0 mm 1 m/S 760 mmHg 89%
    19:00 -1°C° 0 mm 2 m/S 760 mmHg 89%
    20:00 +1°C° 0 mm 1 m/S 760 mmHg 89%
    21:00 +1°C° 0 mm 1 m/S 761 mmHg 89%
    22:00 +1°C° 0 mm 1 m/S 761 mmHg 89%
    23:00 +1°C° 0 mm 1 m/S 761 mmHg 89%

    14 Dezember, Freitag

    Zeit Temperatur Niederschläge Wind Luftdruck Luftfeuchtigkeit
    00:00 +1°C° 0 mm 1 m/S 761 mmHg 89%
    01:00 +1°C° 0 mm 1 m/S 761 mmHg 89%
    02:00 +1°C° 0 mm 1 m/S 761 mmHg 89%
    03:00 +1°C° 0 mm 1 m/S 761 mmHg 89%
    04:00 0°C° 0 mm 1 m/S 761 mmHg 89%
    05:00 0°C° 0 mm 1 m/S 762 mmHg 88%
    06:00 -2°C° 0 mm 2 m/S 762 mmHg 88%
    07:00 -2°C° 0 mm 2 m/S 762 mmHg 88%
    08:00 -1°C° 0 mm 2 m/S 762 mmHg 86%
    09:00 -1°C° 0 mm 2 m/S 763 mmHg 85%
    10:00 -1°C° 0 mm 2 m/S 763 mmHg 83%
    11:00 +1°C° 0 mm 2 m/S 764 mmHg 81%
    12:00 +1°C° 0 mm 2 m/S 764 mmHg 79%
    13:00 0°C° 0 mm 3 m/S 764 mmHg 77%
    14:00 -1°C° 0 mm 2 m/S 764 mmHg 81%
    15:00 -1°C° 0 mm 2 m/S 764 mmHg 85%
    16:00 -2°C° 0 mm 2 m/S 765 mmHg 89%
    17:00 -2°C° 0 mm 2 m/S 765 mmHg 89%
    18:00 -2°C° 0 mm 2 m/S 765 mmHg 90%
    19:00 -2°C° 0 mm 2 m/S 765 mmHg 91%
    20:00 -2°C° 0 mm 2 m/S 766 mmHg 91%
    21:00 -2°C° 0 mm 2 m/S 766 mmHg 91%
    22:00 -2°C° 0 mm 2 m/S 766 mmHg 90%
    23:00 -2°C° 0 mm 2 m/S 767 mmHg 90%

    15 Dezember, Samstag

    Zeit Temperatur Niederschläge Wind Luftdruck Luftfeuchtigkeit
    00:00 -2°C° 0 mm 2 m/S 767 mmHg 90%
    01:00 -2°C° 0 mm 2 m/S 767 mmHg 90%
    02:00 -2°C° 0 mm 2 m/S 767 mmHg 91%
    03:00 -2°C° 0 mm 2 m/S 767 mmHg 91%
    04:00 0°C° 0 mm 1 m/S 768 mmHg 91%
    05:00 -2°C° 0 mm 2 m/S 768 mmHg 91%
    06:00 -2°C° 0 mm 2 m/S 768 mmHg 91%
    07:00 -2°C° 0 mm 2 m/S 768 mmHg 91%
    08:00 -2°C° 0 mm 2 m/S 768 mmHg 89%
    09:00 -2°C° 0 mm 2 m/S 769 mmHg 88%
    10:00 -1°C° 0 mm 2 m/S 769 mmHg 86%
    11:00 -1°C° 0 mm 2 m/S 769 mmHg 84%
    12:00 -1°C° 0 mm 2 m/S 769 mmHg 81%
    13:00 +1°C° 0 mm 2 m/S 769 mmHg 78%
    14:00 -1°C° 0 mm 2 m/S 769 mmHg 82%
    15:00 -1°C° 0 mm 2 m/S 769 mmHg 85%
    16:00 -2°C° 0 mm 2 m/S 769 mmHg 89%
    17:00 -2°C° 0 mm 2 m/S 769 mmHg 89%
    18:00 -2°C° 0 mm 3 m/S 769 mmHg 89%
    19:00 -2°C° 0 mm 3 m/S 769 mmHg 90%
    20:00 -2°C° 0 mm 3 m/S 769 mmHg 90%
    21:00 -2°C° 0 mm 3 m/S 769 mmHg 90%
    22:00 -2°C° 0 mm 3 m/S 769 mmHg 90%
    23:00 -4°C° 0 mm 4 m/S 769 mmHg 90%
    Mehr zeigen